Location: Castillon
(43.1358°N, 0.8654°E)
Time: 19:26:52
(UTC+00:00)

Cosmos 44 - Pass Details

Date: 24 January 2021
Orbit: 572 x 789 km, 65.1° (Epoch: 28 February)

Event Time Altitude Azimuth Distance (km) Brightness Sun altitude
Rises 18:18:41 0° 216° (SW) 2,947 7.3 -14.6°
Reaches altitude 10° 18:20:54 10° 217° (SW) 2,074 6.5 -15.0°
Maximum altitude 18:25:37 79° 304° (WNW) 713 3.4 -15.9°
Enters shadow 18:29:49 15° 31° (NNE) 1,879 5.1 -16.6°
